Regional Weather Roundup
Issued by NWS Cleveland, OH

Home | Current Version | Previous Version | Text Only | Print | Product List | Glossary On
Versions: 1 2 3 4 5 6 7 8 9 10 11 12 13 14 15 16 17 18 19 20 21 22 23 24 25 26 27 28 29 30 31 32 33 34 35 36 37 38 39 40 41 42 43 44 45 46 47 48 49 50
000
ASUS41 KCLE 212212
RWRCLE
OHIO REGIONAL WEATHER ROUNDUP
NATIONAL WEATHER SERVICE WILMINGTON, OH
500 PM EST TUE FEB 21 2017

NOTE: "FAIR" INDICATES FEW OR NO CLOUDS BELOW 12,000 FEET WITH NO
SIGNIFICANT WEATHER AND/OR OBSTRUCTIONS TO VISIBILITY.

OHZ001>008-015>018-024>027-034-035-043-044-212300-
   NORTHWEST OHIO

CITY           SKY/WX    TMP DP  RH WIND       PRES   REMARKS
DEFIANCE       CLOUDY    57  49  74 CALM      29.94S
FINDLAY        CLOUDY    61  48  62 S7        29.94S
TOLEDO EXPRESS CLOUDY    56  51  84 W5        29.94R
TOLEDO EXEC    PTSUNNY   58  51  78 SW6       29.95R
LIMA           CLOUDY    61  49  64 S8        29.95R
$$

OHZ009>014-019>023-028>033-038-089-212300-
   NORTHEAST OHIO

CITY           SKY/WX    TMP DP  RH WIND       PRES   REMARKS
CLE-HOPKINS    CLOUDY    64  43  46 S6        29.97S
CLE-LAKEFRONT  CLOUDY    59  43  55 S5        29.94F
CUY CO. ARPT   CLOUDY    59  46  63 S7        29.95F
LORAIN-ELYRIA  PTSUNNY   61  45  55 S7        29.95F
ASHTABULA      LGT RAIN  55  47  74 NW3       29.98R
AKRON-CANTON   CLOUDY    62  46  55 SW5       29.98S
WOOSTER        FAIR      62  47  57 SW3       29.98R
MANSFIELD      CLOUDY    62  47  57 SW8       29.97S
YOUNGSTOWN     CLOUDY    61  43  51 SW6       29.97S
$$

OHZ042-051>053-060>062-070>072-077>081-212300-
  SOUTHWEST OHIO

CITY           SKY/WX    TMP DP  RH WIND       PRES   REMARKS
CINC-COVINGTON LGT RAIN  59  56  89 SW5       29.97R FOG
CINC-LUNKEN    LGT RAIN  63  55  75 W8        29.98R
HAMILTON       LGT RAIN  57  55  93 S5        29.98S FOG
DAYTON         CLOUDY    62  47  57 S9        29.97S
WRIGHT-PAT AFB FAIR      64  48  57 SW8       29.97S
DAYTON GENERAL LGT RAIN  59  52  77 S3        29.96F
WILMINGTON     LGT RAIN  58  53  84 NW8       29.97F
$$

OHZ036-037-039>041-045>050-054>059-063>069-073>076-082>088-212300-
  CENTRAL AND SOUTHEAST OHIO

CITY           SKY/WX    TMP DP  RH WIND       PRES   REMARKS
COLUMBUS       CLOUDY    67  48  50 SW9       29.98R
OSU AIRPORT    CLOUDY    64  49  57 SW10      29.97R
BOLTON FIELD   CLOUDY    64  48  55 SW7       29.99R
RICKENBACK AFB PTSUNNY   62  49  61 SW3       29.98R
NEWARK         CLOUDY    64  47  53 SW5       29.98R
MARION         CLOUDY    63  46  54 SW6       29.97S
LANCASTER      CLOUDY    66  48  52 CALM      29.99R
ZANESVILLE     CLOUDY    65  46  50 CALM      29.98S
NEW PHILLY     PTSUNNY   65  46  50 SW3       29.99R
$$



USA.gov is the U.S. government's official web portal to all federal, state and local government web resources and services.